DW4776 Weather Reports


Display with metric or nautical units.
time (UTC)temp
F
wind
direction
speed
MPH
gust
MPH
rain 1hr
in
rain 24hr
in
rain mn
in
humidity
%
barometer
mb
20260507181541 65 317 13.0 20.0 0.00 0.00 0.00 33 1011.7
20260507180051 65 295 14.0 24.0 0.00 0.00 0.00 33 1011.8
20260507174538 64 290 13.0 22.0 0.00 0.00 0.00 35 1011.9
20260507173040 63 343 12.0 21.0 0.00 0.00 0.00 36 1011.9
20260507171542 63 317 12.0 23.0 0.00 0.00 0.00 37 1011.9
20260507170037 63 309 16.0 26.0 0.00 0.00 0.00 38 1012.1
20260507164544 62 350 19.0 26.0 0.00 0.00 0.00 38 1012.2
20260507163047 62 339 18.0 26.0 0.00 0.00 0.00 38 1012.1
20260507161542 62 310 15.0 21.0 0.00 0.00 0.00 39 1012.2
20260507160046 62 335 16.0 22.0 0.00 0.00 0.00 39 1012.2
20260507154537 60 277 11.0 18.0 0.00 0.00 0.00 41 1012.1
20260507153043 59 300 10.0 14.0 0.00 0.00 0.00 43 1012.1
20260507151543 58 268 5.0 11.0 0.00 0.00 0.00 44 1012.1
20260507150038 57 258 6.0 10.0 0.00 0.00 0.00 45 1012.1
20260507144537 55 302 4.0 7.0 0.00 0.00 0.00 47 1012.1
20260507143040 55 350 2.0 7.0 0.00 0.00 0.00 50 1012.0
20260507141542 55 324 8.0 13.0 0.00 0.00 0.00 50 1012.0
20260507140035 56 318 19.0 27.0 0.00 0.00 0.00 48 1012.2
20260507134541 55 339 8.0 13.0 0.00 0.00 0.00 46 1011.8
20260507133039 52 322 9.0 12.0 0.00 0.00 0.00 51 1011.6
20260507131553 47 275 3.0 4.0 0.00 0.00 0.00 61 1011.5
20260507130056 46 275 2.0 4.0 0.00 0.00 0.00 61 1011.4
20260507124555 45 275 3.0 5.0 0.00 0.00 0.00 62 1011.5
20260507123036 45 299 3.0 7.0 0.00 0.00 0.00 60 1011.1
20260507121537 46 236 3.0 7.0 0.00 0.00 0.00 58 1010.8
20260507120039 46 262 5.0 10.0 0.00 0.00 0.00 59 1010.8
20260507114549 45 295 4.0 9.0 0.00 0.00 0.00 60 1010.8
20260507113037 45 234 5.0 8.0 0.00 0.00 0.00 51 1010.8
20260507111537 46 318 1.0 8.0 0.00 0.00 0.00 52 1010.5
20260507110043 44 277 1.0 5.0 0.00 0.00 0.00 52 1010.4
20260507104549 44 40 2.0 5.0 0.00 0.00 0.00 49 1010.4
20260507103038 43 19 1.0 2.0 0.00 0.00 0.00 50 1010.4
20260507101538 43 0 0.0 1.0 0.00 0.00 0.00 50 1010.3
20260507100039 43 19 1.0 5.0 0.00 0.00 0.00 50 1010.1
20260507094537 44 50 4.0 8.0 0.00 0.00 0.00 50 1010.1
20260507093040 43 58 4.0 9.0 0.00 0.00 0.00 49 1009.9
20260507091543 44 87 3.0 9.0 0.00 0.00 0.00 51 1009.7
20260507090038 44 57 2.0 8.0 0.00 0.00 0.00 52 1010.0
20260507084539 44 50 6.0 11.0 0.00 0.00 0.00 56 1009.6
20260507083037 44 97 6.0 10.0 0.00 0.00 0.00 58 1009.3
20260507081537 45 40 8.0 10.0 0.00 0.00 0.00 56 1009.4
20260507080037 43 27 6.0 9.0 0.00 0.00 0.00 59 1009.3
20260507074538 43 40 3.0 10.0 0.00 0.00 0.00 56 1009.5
20260507073044 43 27 8.0 11.0 0.00 0.00 0.00 57 1009.4
20260507071538 44 75 2.0 4.0 0.00 0.00 0.00 56 1009.1
20260507070048 44 63 3.0 6.0 0.00 0.00 0.00 54 1009.1
20260507064539 46 50 3.0 9.0 0.00 0.00 0.00 51 1009.0
20260507063052 46 40 7.0 13.0 0.00 0.00 0.00 52 1008.9
20260507061537 47 45 9.0 12.0 0.00 0.00 0.00 51 1008.9
20260507060044 49 62 8.0 15.0 0.00 0.00 0.00 48 1008.9
20260507054543 51 67 11.0 21.0 0.00 0.00 0.00 44 1008.9
20260507053040 54 45 16.0 22.0 0.00 0.00 0.00 33 1009.2
20260507051536 55 45 14.0 17.0 0.00 0.00 0.00 32 1008.0
20260507050037 55 68 11.0 15.0 0.00 0.00 0.00 30 1007.9
20260507044542 55 64 8.0 11.0 0.00 0.00 0.00 31 1007.9
20260507043040 54 50 5.0 9.0 0.00 0.00 0.00 32 1007.7
20260507041538 55 68 4.0 8.0 0.00 0.00 0.00 32 1007.7
20260507040037 55 58 2.0 4.0 0.00 0.00 0.00 32 1007.7
20260507034557 55 73 4.0 8.0 0.00 0.00 0.00 33 1007.7
20260507033037 56 75 2.0 5.0 0.00 0.00 0.00 32 1007.7
20260507031540 58 252 1.0 3.0 0.00 0.00 0.00 30 1007.7
20260507030041 60 250 9.0 13.0 0.00 0.00 0.00 28 1008.0
20260507024538 61 358 0.0 1.0 0.00 0.00 0.00 26 1007.5
20260507023037 62 357 3.0 5.0 0.00 0.00 0.00 24 1007.1
20260507021538 64 22 3.0 5.0 0.00 0.00 0.00 22 1007.0
20260507020043 66 12 3.0 6.0 0.00 0.00 0.00 21 1007.0
20260507014547 67 322 6.0 9.0 0.00 0.00 0.00 20 1007.0
20260507013047 67 302 5.0 10.0 0.00 0.00 0.00 20 1007.1
20260507011537 68 291 8.0 11.0 0.00 0.00 0.00 20 1007.1
20260507010050 68 286 9.0 14.0 0.00 0.00 0.00 19 1007.1
20260507004536 69 304 15.0 20.0 0.00 0.00 0.00 18 1007.3
20260507003036 69 313 10.0 18.0 0.00 0.00 0.00 19 1007.5
20260507001538 69 309 12.0 24.0 0.00 0.00 0.00 19 1007.5
20260507000037 69 295 13.0 20.0 0.00 0.00 0.00 19 1007.5
20260506234538 68 299 12.0 19.0 0.00 0.00 0.00 19 1007.6
20260506233054 69 314 17.0 25.0 0.00 0.00 0.00 19 1007.6
20260506231538 69 300 9.0 22.0 0.00 0.00 0.00 20 1007.6
20260506230039 68 316 15.0 26.0 0.00 0.00 0.00 20 1007.8
20260506224538 69 296 14.0 26.0 0.00 0.00 0.00 20 1007.8
20260506223037 68 294 14.0 25.0 0.00 0.00 0.00 20 1008.1
20260506221537 67 299 15.0 25.0 0.00 0.00 0.00 21 1008.5
20260506220036 66 341 9.0 18.0 0.00 0.00 0.00 21 1008.7
20260506214537 66 260 7.0 19.0 0.00 0.00 0.00 21 1009.1
20260506213036 65 281 9.0 21.0 0.00 0.00 0.00 20 1009.4
20260506211535 64 235 9.0 19.0 0.00 0.00 0.00 20 1009.6
20260506210038 63 32 12.0 19.0 0.00 0.00 0.00 21 1010.0
20260506204538 63 322 11.0 16.0 0.00 0.00 0.00 20 1010.3
20260506203037 62 267 4.0 21.0 0.00 0.00 0.00 21 1010.4
20260506201543 61 217 10.0 17.0 0.00 0.00 0.00 21 1010.7
20260506200044 60 285 11.0 21.0 0.00 0.00 0.00 21 1010.9
20260506194545 60 223 12.0 23.0 0.00 0.00 0.00 21 1011.1
20260506193037 59 274 12.0 19.0 0.00 0.00 0.00 23 1011.4
20260506191537 58 218 10.0 16.0 0.00 0.00 0.00 23 1011.6
20260506190037 56 176 10.0 16.0 0.00 0.00 0.00 24 1011.7
20260506184537 55 179 8.0 14.0 0.00 0.00 0.00 25 1012.0
20260506183037 55 222 12.0 18.0 0.00 0.00 0.00 24 1012.3